Tracking 31027 objects as of 19-Jul-2025
HD Live streaming from Space Station
objects crossing your sky now

STARLINK-1585

Track STARLINK-1585 now!
10-day predictions
STARLINK-1585 is classified as:


NORAD ID: 46117
Int'l Code: 2020-057A
Perigee: 553.5 km
Apogee: 555.2 km
Inclination: 53.1 °
Period: 95.6 minutes
Semi major axis: 6925 km
RCS: Unknown
Launch date: August 18, 2020
Source: United States (US)
Launch site: AIR FORCE EASTERN TEST RANGE (AFETR)
Your satellite tracking list
ATLAS 2A CENTAUR R/B
Track 1 satellite(s)




NASA's NSSDC Master Catalog

Two Line Element Set (TLE):
1 46117U 20057A   25199.47917967  .00001840  00000-0  14237-3 0  9992
2 46117  53.0548 268.0339 0001228  84.8979 275.2151 15.06394220271044
Source of the keplerian elements: AFSPC